Current Version              Previous Version:    01  02  03  04  05  06  07  08  09  10  11  12  13  14  15  16  17  18  19  20  21  22  23  24  25  26  27  28  29  30  
   31  32  33  34  35  36  37  38  39  40  41  42  43  44  45  46  47  48  49  50  51  52  53  54  55  56  57  58  59  60  

[Printable]
651
ASUS44 KFWD 200603
RWRTX
NORTH TEXAS HOURLY WEATHER ROUNDUP
NATIONAL WEATHER SERVICE FORT WORTH TX
100 AM CDT MON OCT 20 2014

NOTE: "FAIR" INDICATES FEW OR NO CLOUDS BELOW 12,000 FEET WITH NO
SIGNIFICANT WEATHER AND/OR OBSTRUCTIONS TO VISIBILITY.

TXZ118-119-200700-
DALLAS/FORT WORTH METROPLEX

CITY           SKY/WX    TMP DP  RH WIND       PRES   REMARKS
DFW AIRPORT    PTCLDY    62  53  72 SE5       30.04F
6HR MIN TEMP:  62; 6HR MAX TEMP:  70;

DALLAS LOVE    PTCLDY    64  52  64 SE10      30.04F
6HR MIN TEMP:  64; 6HR MAX TEMP:  73;

FTW MEACHAM    CLEAR     65  57  75 E3        30.04F
6HR MIN TEMP:  65; 6HR MAX TEMP:  74;

DAL-EXECUTIVE  CLEAR     60  54  80 SE3       30.04F
6HR MIN TEMP:  60; 6HR MAX TEMP:  71;

FTW-ALLIANCE   PTCLDY    62  56  80 CALM      30.04F
6HR MIN TEMP:  61; 6HR MAX TEMP:  70;

FTW-NAS-JRB    CLEAR     68  55  63 SE3       30.08F
6HR MIN TEMP:  67; 6HR MAX TEMP:  76;

FTW-SPINKS     CLEAR     61  55  81 CALM      30.06F
6HR MIN TEMP:  60; 6HR MAX TEMP:  72;

ARLINGTON      CLEAR     63  55  75 SE5       30.04F
6HR MIN TEMP:  59; 6HR MAX TEMP:  73;

GRAND PRAIRIE  CLEAR     64  56  78 E3        30.06F
6HR MIN TEMP:  63; 6HR MAX TEMP:  72;

ADDISON        CLEAR     65  55  68 SE8       30.06F
6HR MIN TEMP:  65; 6HR MAX TEMP:  73;

MESQUITE       CLEAR     59  52  76 SE3       30.06F
6HR MIN TEMP:  58; 6HR MAX TEMP:  69;

LANCASTER      CLEAR     58  53  81 CALM      30.06F
6HR MIN TEMP:  58; 6HR MAX TEMP:  70;

$$

TXZ091>094-102>105-117-120-121-131>134-200700-
NORTH CENTRAL TEXAS

CITY           SKY/WX    TMP DP  RH WIND       PRES   REMARKS
SHRMAN/DENISON CLEAR     62  53  72 SE6       30.07F
6HR MIN TEMP:  62; 6HR MAX TEMP:  68;

GAINESVILLE    CLEAR     60  54  80 MISG      30.07F
6HR MIN TEMP:  60; 6HR MAX TEMP:  68;

BOWIE          CLEAR     60  57  89 SE3       30.04F
6HR MIN TEMP:  60; 6HR MAX TEMP:  65;

BRIDGEPORT     CLEAR     64  58  81 CALM      30.06F
6HR MIN TEMP:  64; 6HR MAX TEMP:  70;

DECATUR        CLEAR     62  55  79 SE6       30.05F
6HR MIN TEMP:  62; 6HR MAX TEMP:  70;

DENTON         CLEAR     62  55  77 SE3       30.04F
6HR MIN TEMP:  62; 6HR MAX TEMP:  70;

MCKINNEY       CLEAR     54  53  97 NE3       30.06F
6HR MIN TEMP:  54; 6HR MAX TEMP:  70;

GREENVILLE     CLEAR     54  50  87 CALM      30.06F
ROCKWALL       CLEAR     60  53  77 SE5       30.05F
6HR MIN TEMP:  60; 6HR MAX TEMP:  68;

TERRELL        CLEAR     61  52  72 E3        30.06F
6HR MIN TEMP:  59; 6HR MAX TEMP:  70;

WAXAHACHIE     CLEAR     60  56  87 CALM      30.06F
6HR MIN TEMP:  60; 6HR MAX TEMP:  69;

CLEBURNE       CLEAR     63  59  88 E6        30.06F
GRANBURY       CLEAR     66  57  74 SE6       30.06F
6HR MIN TEMP:  65; 6HR MAX TEMP:  75;

$$

TXZ083>090-098>101-113>116-127>130-139>142-154-155-200700-
WESTERN NORTH TEXAS

CITY           SKY/WX    TMP DP  RH WIND       PRES   REMARKS
WICHITA FALLS  CLEAR     59  55  87 S7        30.04S
6HR MIN TEMP:  59; 6HR MAX TEMP:  70;

WF-KICKAPOO    CLEAR     63  56  80 CALM      30.06R
6HR MIN TEMP:  62; 6HR MAX TEMP:  70;

VERNON         PTCLDY    63  57  82 CALM      30.05F
ABILENE        PTCLDY    66  59  78 S10       30.06S
6HR MIN TEMP:  66; 6HR MAX TEMP:  75;

ABILENE-DYESS  MOCLDY    65  59  79 S12       30.05S
6HR MIN TEMP:  65; 6HR MAX TEMP:  75;

BRECKENRIDGE   PTCLDY    66  60  79 S3        30.04F
6HR MIN TEMP:  66; 6HR MAX TEMP:  76;

MINERAL WELLS  CLEAR     62  57  83 SE7       30.03F
6HR MIN TEMP:  62; 6HR MAX TEMP:  73;

STEPHENVILLE   CLEAR     63  58  82 SE5       30.08F
6HR MIN TEMP:  63; 6HR MAX TEMP:  71;

COMANCHE       CLEAR     62  62 100 S5        30.06F
6HR MIN TEMP:  62; 6HR MAX TEMP:  71;

COLEMAN        PTCLDY    65  61  87 CALM      30.07R
6HR MIN TEMP:  65; 6HR MAX TEMP:  74;

BRADY          CLEAR     63  59  88 E3        30.06R
$$

TXZ143>147-156>162-174-175-200700-
CENTRAL TEXAS

CITY           SKY/WX    TMP DP  RH WIND       PRES   REMARKS
WACO           CLEAR     61  58  90 CALM      30.05S
6HR MIN TEMP:  61; 6HR MAX TEMP:  74;

WACO-MCGREGOR  CLEAR     63  55  77 SE3       30.06F
6HR MIN TEMP:  63; 6HR MAX TEMP:  75;

HILLSBORO      CLEAR     65  56  73 E9        30.05F
6HR MIN TEMP:  65; 6HR MAX TEMP:  73;

CORSICANA      CLEAR     62  56  80 SE6       30.06F
6HR MIN TEMP:  62; 6HR MAX TEMP:  71;

MEXIA          CLEAR     61  57  86 CALM      30.05F
6HR MIN TEMP:  61; 6HR MAX TEMP:  71;

HEARNE         CLEAR     64  59  85 CALM      30.05F
6HR MIN TEMP:  64; 6HR MAX TEMP:  74;

CAMERON        FOG       64  60  89 SE5       30.04F VSB 3/4
6HR MIN TEMP:  64; 6HR MAX TEMP:  75;

TEMPLE         CLEAR     64  55  72 E8        30.03F
6HR MIN TEMP:  64; 6HR MAX TEMP:  73;

KILLEEN        CLEAR     66  61  82 SE9       30.04F
KILLEEN-SKYLRK CLEAR     64  55  72 E5        30.04F
6HR MIN TEMP:  64; 6HR MAX TEMP:  73;

FORT HOOD      CLEAR     66  61  84 E5        30.04F
6HR MIN TEMP:  66; 6HR MAX TEMP:  75;

GATESVILLE     CLEAR     63  61  94 CALM      30.07F
HAMILTON       CLEAR     63  62  97 MISG      30.06F
6HR MIN TEMP:  63; 6HR MAX TEMP:  71;

LAMPASAS       CLEAR     62  60  94 CALM      30.04F
6HR MIN TEMP:  62; 6HR MAX TEMP:  73;

$$

TXZ095>097-106>112-122>126-135>138-148>153-164>167-200700-
EAST TEXAS

CITY           SKY/WX    TMP DP  RH WIND       PRES   REMARKS
PARIS          CLEAR     54  45  71 E7        30.08F
6HR MIN TEMP:  54; 6HR MAX TEMP:  66;

SULPHUR SPRNGS CLEAR     54  51  90 CALM      30.09F
6HR MIN TEMP:  54; 6HR MAX TEMP:  67;

MOUNT PLEASANT CLEAR     52  51  96 CALM      30.10S
6HR MIN TEMP:  52; 6HR MAX TEMP:  66;

MINEOLA        CLEAR     54  52  94 CALM      30.07F
TYLER          CLEAR     60  52  74 E3        30.06F
6HR MIN TEMP:  59; 6HR MAX TEMP:  69;

LONGVIEW       CLEAR     53  51  93 CALM      30.06F
6HR MIN TEMP:  53; 6HR MAX TEMP:  63;

MARSHALL       CLEAR     53  51  92 CALM      30.09F
6HR MIN TEMP:  53; 6HR MAX TEMP:  64;

ATHENS         CLEAR     55  54  94 CALM      30.05F
PALESTINE      CLEAR     62  55  78 E5        30.06F
JACKSONVILLE   CLEAR     60  53  77 E3        30.08F
HENDERSON      CLEAR     53  52  99 CALM      30.07F
6HR MIN TEMP:  52; 6HR MAX TEMP:  63;

NACOGDOCHES    CLEAR     52  48  87 CALM      30.07F
6HR MIN TEMP:  52; 6HR MAX TEMP:  64;

$$

SUPPLEMENTAL OBSERVATIONS (CENTRAL)

CITY           SKY/WX    TMP DP  RH WIND       PRES   REMARKS
$$

SUPPLEMENTAL OBSERVATIONS (WEST)

CITY           SKY/WX    TMP DP  RH WIND       PRES   REMARKS
$$

SUPPLEMENTAL OBSERVATIONS (EAST)

CITY           SKY/WX    TMP DP  RH WIND       PRES   REMARKS
$$

SUPPLEMENTAL OBSERVATIONS ARE A COLLECTION OF AUTOMATED INSTRUMENTS
THAT ARE MAINTAINED BY A VARIETY OF FEDERAL AND STATE AGENCIES.
CERTAIN ELEMENTS...SUCH AS HUMIDITY VALUES AND SUSTAINED WIND
SPEEDS...MAY BE APPROXIMATED.